TimeEDT,TemperatureF,Dew PointF,Humidity,Sea Level PressureIn,VisibilityMPH,Wind Direction,Wind SpeedMPH,Gust SpeedMPH,PrecipitationIn,Events,Conditions,WindDirDegrees,DateUTC
12:54 AM,68.0,57.0,68,30.16,10.0,Calm,Calm,-,N/A,,Mostly Cloudy,0,2014-05-12 04:54:00
1:54 AM,64.9,57.0,75,30.15,10.0,Calm,Calm,-,N/A,,Scattered Clouds,0,2014-05-12 05:54:00
2:54 AM,62.1,57.0,84,30.14,10.0,Calm,Calm,-,N/A,,Mostly Cloudy,0,2014-05-12 06:54:00
3:54 AM,61.0,55.9,83,30.14,10.0,Calm,Calm,-,N/A,,Mostly Cloudy,0,2014-05-12 07:54:00
4:54 AM,60.1,55.9,86,30.14,10.0,Calm,Calm,-,N/A,,Mostly Cloudy,0,2014-05-12 08:54:00
5:54 AM,62.1,57.0,84,30.14,10.0,Calm,Calm,-,N/A,,Scattered Clouds,0,2014-05-12 09:54:00
6:54 AM,60.1,55.9,86,30.16,10.0,Calm,Calm,-,N/A,,Partly Cloudy,0,2014-05-12 10:54:00
7:54 AM,64.0,57.0,78,30.18,10.0,Calm,Calm,-,N/A,,Scattered Clouds,0,2014-05-12 11:54:00
8:54 AM,70.0,57.9,65,30.18,10.0,WSW,3.5,-,N/A,,Partly Cloudy,250,2014-05-12 12:54:00
9:54 AM,73.4,59.0,61,30.21,10.0,WSW,4.6,-,N/A,,Partly Cloudy,240,2014-05-12 13:54:00
10:54 AM,78.1,60.1,54,30.18,10.0,SW,6.9,-,N/A,,Scattered Clouds,230,2014-05-12 14:54:00
11:54 AM,82.0,62.1,51,30.17,10.0,WSW,4.6,-,N/A,,Scattered Clouds,250,2014-05-12 15:54:00
12:54 PM,84.9,59.0,41,30.14,10.0,South,4.6,-,N/A,,Partly Cloudy,190,2014-05-12 16:54:00
1:54 PM,88.0,55.9,34,30.12,10.0,SSW,5.8,-,N/A,,Scattered Clouds,200,2014-05-12 17:54:00
2:54 PM,90.0,53.1,28,30.11,10.0,SW,8.1,-,N/A,,Scattered Clouds,230,2014-05-12 18:54:00
3:54 PM,86.0,57.9,38,30.09,10.0,South,8.1,-,N/A,,Mostly Cloudy,180,2014-05-12 19:54:00
4:54 PM,86.0,57.9,38,30.08,10.0,South,8.1,-,N/A,,Mostly Cloudy,190,2014-05-12 20:54:00
5:08 PM,87.8,57.2,35,30.12,10.0,South,5.8,-,N/A,Thunderstorm,Thunderstorm,180,2014-05-12 21:08:00
5:26 PM,84.2,60.8,45,30.11,10.0,NE,5.8,-,N/A,,Mostly Cloudy,50,2014-05-12 21:26:00
5:54 PM,81.0,61.0,50,30.08,10.0,SE,8.1,-,0.01,Rain,Light Rain,140,2014-05-12 21:54:00
6:54 PM,82.0,60.1,47,30.09,10.0,Calm,Calm,-,0.00,,Mostly Cloudy,0,2014-05-12 22:54:00
7:14 PM,78.8,64.4,61,30.12,10.0,NE,5.8,-,N/A,Thunderstorm,Thunderstorm,50,2014-05-12 23:14:00
7:54 PM,73.0,64.9,76,30.11,10.0,East,5.8,-,0.11,Rain-Thunderstorm,Light Thunderstorms and Rain,100,2014-05-12 23:54:00
8:29 PM,71.6,66.2,83,30.15,10.0,NNE,4.6,-,0.00,,Mostly Cloudy,20,2014-05-13 00:29:00
8:54 PM,72.0,66.9,84,30.12,10.0,Calm,Calm,-,0.00,,Mostly Cloudy,0,2014-05-13 00:54:00
9:54 PM,68.0,66.0,93,30.13,10.0,NNW,3.5,-,N/A,,Scattered Clouds,330,2014-05-13 01:54:00
10:54 PM,66.9,64.9,93,30.14,10.0,Calm,Calm,-,N/A,,Partly Cloudy,0,2014-05-13 02:54:00
11:54 PM,66.0,64.0,93,30.13,10.0,Calm,Calm,-,N/A,,Partly Cloudy,0,2014-05-13 03:54:00